Location: Aldenham
(51.6667°N, 0.3500°W)
Time: 01:49:06
(UTC+00:00)

SJ-12 - Pass Details

Date: 18 November 2025
Orbit: 517 x 528 km, 97.8° (Epoch: 13 December)

Event Time Altitude Azimuth Distance (km) Brightness Sun altitude
Rises 17:05:24 0° 152° (SSE) 2,644 7.2 -9.0°
Reaches altitude 10° 17:07:31 10° 148° (SSE) 1,758 6.3 -9.3°
Maximum altitude 17:11:13 53° 71° (ENE) 647 3.8 -9.8°
Drops below altitude 10° 17:14:55 10° 354° (N) 1,766 6.3 -10.4°
Sets 17:17:03 0° 350° (N) 2,658 7.2 -10.7°
